Regional Weather Roundup
Issued by NWS Sioux Falls, SD

Home | Current Version | Previous Version | Text Only | Print | Product List | Glossary On
Versions: 1 2 3 4 5 6 7 8 9 10 11 12 13 14 15 16 17 18 19 20 21 22 23 24 25 26 27 28 29 30 31 32 33 34 35 36 37 38 39 40 41 42 43 44 45 46 47 48 49 50
000
ASUS43 KFSD 280402
RWRFSD

WEATHER ROUNDUP FOR SE SOUTH DAKOTA/SW MINNESOTA/NW IOWA
NATIONAL WEATHER SERVICE SIOUX FALLS SD
1100 PM CDT WED AUG 27 2014

NOTE: "FAIR" INDICATES FEW OR NO CLOUDS BELOW 12,000 FEET WITH NO
SIGNIFICANT WEATHER AND OR OBSTRUCTIONS TO VISIBILITY.


SDZ038>040-050-052>070-280500-
SOUTHEAST SOUTH DAKOTA

CITY           SKY/WX    TMP DP  RH WIND       PRES   REMARKS
CHAMBERLAIN    CLOUDY    67  66  96 SE8       30.04F
HURON          MOCLDY    68  64  87 SE7       30.04F
MADISON        MOCLDY    66  66 100 SE8       30.09F
MITCHELL       LGT RAIN  68  66  93 SE7       30.06S
SIOUX FALLS    CLOUDY    70  65  84 SE12      30.09S
WINNER         LGT RAIN  69  67  93 SE10      30.04F
YANKTON        CLOUDY    68  66  94 E6        30.06F
$$

MNZ071-072-080-081-089-090-097-098-280500-
SOUTHWEST MINNESOTA

CITY           SKY/WX    TMP DP  RH WIND       PRES   REMARKS
FAIRMONT       MOCLDY    61  55  82 SE6       30.14R
JACKSON        CLOUDY    64  59  82 E7        30.14S
LUVERNE        CLOUDY    68  63  83 SE5       30.11S
MARSHALL       PTCLDY    64  57  77 SE9       30.10S
MONTEVIDEO     PTCLDY    63  61  94 SE5       30.11F
PIPESTONE      CLOUDY    68  64  88 SE6       30.11S
REDWOOD FALLS  CLEAR     63  57  81 SE7       30.12R
TRACY          MOCLDY    64  61  88 SE6       30.12S
WINDOM         MOCLDY    64  59  82 E6        30.13S
WORTHINGTON    CLOUDY    64  63  94 E6        30.14S
$$

IAZ001>003-012>014-020>022-031-032-NEZ013-014-SDZ071-280500-
NORTHWEST IOWA

CITY           SKY/WX    TMP DP  RH WIND       PRES   REMARKS
DENISON        MOCLDY    68  68 100 E3        30.08S
ESTHERVILLE    MOCLDY    63  61  93 E5        30.13S
LE MARS        CLOUDY    70  68  94 SE6       30.09F
ORANGE CITY    CLOUDY    70  64  83 SE3       30.11S
SHELDON        CLOUDY    66  66 100 SE5       30.10S
SIOUX CITY     CLOUDY    70  67  90 E7        30.08S
SPENCER        CLOUDY    69  63  81 E8        30.12S
STORM LAKE     CLOUDY    68  68 100 E7        30.11F
$$

ABBREVIATIONS USED IN REMARKS
   TC - TEMPERATURE IN CELSIUS
  WCI - WIND CHILL INDEX
   HX - HEAT INDEX
  VSB - VISIBILITY




USA.gov is the U.S. government's official web portal to all federal, state and local government web resources and services.